• In Belarus
  • List of Countries
  • For 7 days
  • Water Temperature
  • Satellite Maps
  • Weather Map
  • Weather Widgets
  • user-avatar
    Login

    Hourly Weather Escaldes-Engordany

    Today, 25 September, Monday

    Time Temperature Precipitation Wind Pressure Humidity
    00:00 +12°C° 0 mm 1 mps 641 mmHg 69%
    01:00 +12°C° 0 mm 1 mps 641 mmHg 69%
    02:00 +11°C° 0 mm 1 mps 641 mmHg 68%
    03:00 +11°C° 0 mm 1 mps 640 mmHg 68%
    04:00 +11°C° 0 mm 1 mps 641 mmHg 68%
    05:00 +11°C° 0 mm 1 mps 641 mmHg 69%
    06:00 +11°C° 0 mm 1 mps 641 mmHg 69%
    07:00 +13°C° 0 mm 1 mps 642 mmHg 66%
    08:00 +14°C° 0 mm 1 mps 642 mmHg 63%
    09:00 +16°C° 0 mm 1 mps 643 mmHg 60%
    10:00 +16°C° 0.3 mm 1 mps 643 mmHg 59%
    11:00 +17°C° 0.3 mm 2 mps 643 mmHg 59%
    12:00 +18°C° 0.3 mm 2 mps 644 mmHg 58%
    13:00 +17°C° 0.7 mm 2 mps 643 mmHg 63%
    14:00 +16°C° 0.7 mm 2 mps 643 mmHg 67%
    15:00 +15°C° 0.7 mm 2 mps 642 mmHg 72%
    16:00 +14°C° 1 mm 2 mps 642 mmHg 77%
    17:00 +13°C° 1 mm 2 mps 642 mmHg 82%
    18:00 +12°C° 1 mm 2 mps 642 mmHg 87%
    19:00 +12°C° 0.5 mm 2 mps 642 mmHg 89%
    20:00 +10°C° 0.5 mm 2 mps 642 mmHg 90%
    21:00 +9°C° 0.5 mm 2 mps 642 mmHg 92%
    22:00 +9°C° 0.2 mm 2 mps 642 mmHg 91%
    23:00 +9°C° 0.2 mm 2 mps 642 mmHg 91%

    Tomorrow, 26 September, Tuesday

    Time Temperature Precipitation Wind Pressure Humidity
    00:00 +10°C° 0.2 mm 1 mps 642 mmHg 91%
    01:00 +9°C° 0.1 mm 1 mps 641 mmHg 91%
    02:00 +9°C° 0.1 mm 1 mps 641 mmHg 91%
    03:00 +8°C° 0.1 mm 1 mps 641 mmHg 90%
    04:00 +8°C° 0 mm 1 mps 641 mmHg 90%
    05:00 +8°C° 0 mm 1 mps 641 mmHg 89%
    06:00 +7°C° 0 mm 1 mps 641 mmHg 89%
    07:00 +9°C° 0 mm 1 mps 642 mmHg 80%
    08:00 +11°C° 0 mm 1 mps 643 mmHg 72%
    09:00 +13°C° 0 mm 1 mps 644 mmHg 64%
    10:00 +14°C° 0.1 mm 1 mps 644 mmHg 59%
    11:00 +15°C° 0.1 mm 1 mps 644 mmHg 54%
    12:00 +18°C° 0.1 mm 1 mps 644 mmHg 49%
    13:00 +16°C° 0.1 mm 1 mps 644 mmHg 52%
    14:00 +16°C° 0.1 mm 1 mps 644 mmHg 55%
    15:00 +16°C° 0.1 mm 1 mps 643 mmHg 58%
    16:00 +14°C° 0.1 mm 1 mps 643 mmHg 66%
    17:00 +12°C° 0.1 mm 1 mps 642 mmHg 74%
    18:00 +10°C° 0.1 mm 0 mps 642 mmHg 82%
    19:00 +11°C° 0 mm 1 mps 642 mmHg 84%
    20:00 +10°C° 0 mm 1 mps 642 mmHg 86%
    21:00 +10°C° 0 mm 1 mps 643 mmHg 88%
    22:00 +10°C° 0 mm 1 mps 642 mmHg 89%
    23:00 +10°C° 0 mm 1 mps 642 mmHg 90%

    Day after tomorrow, 27 September, Wednesday

    Time Temperature Precipitation Wind Pressure Humidity
    00:00 +10°C° 0 mm 1 mps 642 mmHg 91%
    01:00 +10°C° 0 mm 1 mps 642 mmHg 92%
    02:00 +10°C° 0 mm 1 mps 642 mmHg 92%
    03:00 +9°C° 0 mm 1 mps 642 mmHg 92%
    04:00 +9°C° 0 mm 1 mps 642 mmHg 92%
    05:00 +9°C° 0 mm 1 mps 642 mmHg 92%
    06:00 +8°C° 0 mm 1 mps 641 mmHg 92%
    07:00 +11°C° 0 mm 1 mps 642 mmHg 82%
    08:00 +13°C° 0 mm 1 mps 643 mmHg 73%
    09:00 +15°C° 0 mm 1 mps 644 mmHg 64%
    10:00 +16°C° 0 mm 2 mps 644 mmHg 59%
    11:00 +17°C° 0 mm 2 mps 645 mmHg 55%
    12:00 +18°C° 0 mm 2 mps 645 mmHg 50%
    13:00 +18°C° 0 mm 2 mps 645 mmHg 52%
    14:00 +18°C° 0 mm 2 mps 644 mmHg 54%
    15:00 +17°C° 0 mm 2 mps 644 mmHg 56%
    16:00 +16°C° 0 mm 2 mps 644 mmHg 64%
    17:00 +14°C° 0 mm 2 mps 643 mmHg 72%
    18:00 +12°C° 0 mm 1 mps 643 mmHg 80%
    19:00 +12°C° 0 mm 1 mps 643 mmHg 83%
    20:00 +11°C° 0 mm 1 mps 643 mmHg 85%
    21:00 +10°C° 0 mm 1 mps 643 mmHg 88%
    22:00 +10°C° 0 mm 1 mps 643 mmHg 87%
    23:00 +10°C° 0 mm 1 mps 643 mmHg 87%

    28 September, Thursday

    Time Temperature Precipitation Wind Pressure Humidity
    00:00 +10°C° 0 mm 1 mps 643 mmHg 87%
    01:00 +10°C° 0 mm 1 mps 642 mmHg 86%
    02:00 +10°C° 0 mm 1 mps 642 mmHg 85%
    03:00 +10°C° 0 mm 1 mps 642 mmHg 84%
    04:00 +10°C° 0 mm 1 mps 643 mmHg 83%
    05:00 +9°C° 0 mm 1 mps 643 mmHg 82%
    06:00 +9°C° 0 mm 1 mps 643 mmHg 81%
    07:00 +12°C° 0 mm 1 mps 644 mmHg 73%
    08:00 +15°C° 0 mm 1 mps 645 mmHg 65%
    09:00 +18°C° 0 mm 1 mps 646 mmHg 56%
    10:00 +19°C° 0 mm 1 mps 646 mmHg 54%
    11:00 +19°C° 0 mm 2 mps 647 mmHg 51%
    12:00 +20°C° 0 mm 2 mps 647 mmHg 49%
    13:00 +19°C° 0 mm 2 mps 646 mmHg 51%
    14:00 +19°C° 0 mm 2 mps 646 mmHg 54%
    15:00 +18°C° 0 mm 2 mps 645 mmHg 57%
    16:00 +17°C° 0 mm 2 mps 645 mmHg 65%
    17:00 +15°C° 0 mm 1 mps 644 mmHg 73%
    18:00 +13°C° 0 mm 1 mps 644 mmHg 81%
    19:00 +12°C° 0 mm 1 mps 644 mmHg 83%
    20:00 +12°C° 0 mm 1 mps 644 mmHg 86%
    21:00 +11°C° 0 mm 1 mps 644 mmHg 88%
    22:00 +11°C° 0 mm 1 mps 644 mmHg 89%
    23:00 +11°C° 0 mm 1 mps 643 mmHg 89%

    29 September, Friday

    Time Temperature Precipitation Wind Pressure Humidity
    00:00 +10°C° 0 mm 1 mps 643 mmHg 89%
    01:00 +10°C° 0 mm 1 mps 643 mmHg 88%
    02:00 +10°C° 0 mm 1 mps 643 mmHg 87%
    03:00 +10°C° 0 mm 1 mps 642 mmHg 87%
    04:00 +10°C° 0 mm 1 mps 642 mmHg 86%
    05:00 +10°C° 0 mm 1 mps 642 mmHg 85%
    06:00 +10°C° 0 mm 1 mps 642 mmHg 84%
    07:00 +12°C° 0 mm 1 mps 643 mmHg 76%
    08:00 +15°C° 0 mm 1 mps 644 mmHg 67%
    09:00 +18°C° 0 mm 1 mps 645 mmHg 59%
    10:00 +19°C° 0.2 mm 1 mps 645 mmHg 57%
    11:00 +20°C° 0.2 mm 1 mps 645 mmHg 55%
    12:00 +19°C° 0.2 mm 2 mps 645 mmHg 54%
    13:00 +19°C° 0.5 mm 2 mps 644 mmHg 56%
    14:00 +20°C° 0.5 mm 1 mps 644 mmHg 59%
    15:00 +19°C° 0.5 mm 1 mps 643 mmHg 61%
    16:00 +18°C° 0.7 mm 1 mps 643 mmHg 69%
    17:00 +15°C° 0.7 mm 1 mps 642 mmHg 77%
    18:00 +13°C° 0.7 mm 1 mps 642 mmHg 84%
    19:00 +13°C° 0.7 mm 1 mps 642 mmHg 86%
    20:00 +13°C° 0.7 mm 1 mps 642 mmHg 87%
    21:00 +12°C° 0.7 mm 1 mps 643 mmHg 88%
    22:00 +12°C° 0.7 mm 1 mps 642 mmHg 88%
    23:00 +12°C° 0.7 mm 1 mps 642 mmHg 88%

    30 September, Saturday

    Time Temperature Precipitation Wind Pressure Humidity
    00:00 +12°C° 0.7 mm 1 mps 642 mmHg 89%
    01:00 +12°C° 0.1 mm 1 mps 642 mmHg 89%
    02:00 +11°C° 0.1 mm 1 mps 642 mmHg 89%
    03:00 +11°C° 0.1 mm 1 mps 641 mmHg 89%
    04:00 +11°C° 0.1 mm 1 mps 641 mmHg 89%
    05:00 +11°C° 0.1 mm 1 mps 642 mmHg 89%
    06:00 +11°C° 0.1 mm 1 mps 642 mmHg 89%
    07:00 +12°C° 0.2 mm 1 mps 642 mmHg 85%
    08:00 +13°C° 0.2 mm 1 mps 643 mmHg 82%
    09:00 +13°C° 0.2 mm 0 mps 643 mmHg 78%
    10:00 +15°C° 0.5 mm 1 mps 643 mmHg 77%
    11:00 +15°C° 0.5 mm 1 mps 643 mmHg 76%
    12:00 +15°C° 0.5 mm 1 mps 643 mmHg 75%
    13:00 +15°C° 1.8 mm 1 mps 642 mmHg 79%
    14:00 +14°C° 1.8 mm 1 mps 642 mmHg 82%
    15:00 +14°C° 1.8 mm 1 mps 641 mmHg 86%
    16:00 +13°C° 2.7 mm 1 mps 641 mmHg 89%
    17:00 +12°C° 2.7 mm 1 mps 641 mmHg 91%
    18:00 +11°C° 2.7 mm 1 mps 641 mmHg 94%
    19:00 +11°C° 0.7 mm 1 mps 641 mmHg 94%
    20:00 +11°C° 0.7 mm 1 mps 641 mmHg 94%
    21:00 +11°C° 0.7 mm 1 mps 642 mmHg 94%
    22:00 +10°C° 0.1 mm 1 mps 641 mmHg 94%
    23:00 +10°C° 0.1 mm 1 mps 641 mmHg 94%
    Show more